When you browse on this site, cookies collect data to enhance your experience and personalize the content and advertising you see.
Visit our Privacy Policy to learn more. By continuing to use the site, you agree to this use of cookies and data.
EN

Hourly Weather Volovniki

Today, 7 August, Friday

Time Temperature Precipitation Wind Pressure Humidity
00:00 +17°C° 0 mm 2 mps 752 mmHg 83%
01:00 +16°C° 0 mm 2 mps 753 mmHg 84%
02:00 +16°C° 0 mm 2 mps 753 mmHg 85%
03:00 +16°C° 0 mm 2 mps 753 mmHg 86%
04:00 +16°C° 0 mm 2 mps 753 mmHg 87%
05:00 +15°C° 0 mm 2 mps 753 mmHg 88%
06:00 +17°C° 0 mm 2 mps 753 mmHg 84%
07:00 +19°C° 0 mm 2 mps 754 mmHg 81%
08:00 +20°C° 0 mm 2 mps 754 mmHg 78%
09:00 +21°C° 0 mm 2 mps 754 mmHg 73%
10:00 +24°C° 0 mm 3 mps 754 mmHg 69%
11:00 +25°C° 0 mm 3 mps 754 mmHg 65%
12:00 +25°C° 0 mm 3 mps 754 mmHg 64%
13:00 +26°C° 0 mm 3 mps 753 mmHg 64%
14:00 +26°C° 0 mm 3 mps 753 mmHg 64%
15:00 +26°C° 0 mm 3 mps 753 mmHg 67%
16:00 +25°C° 0 mm 3 mps 753 mmHg 70%
17:00 +25°C° 0 mm 3 mps 752 mmHg 72%
18:00 +24°C° 0 mm 2 mps 752 mmHg 78%
19:00 +21°C° 0 mm 2 mps 752 mmHg 83%
20:00 +19°C° 0 mm 2 mps 752 mmHg 88%
21:00 +19°C° 0 mm 2 mps 752 mmHg 89%
22:00 +18°C° 0 mm 2 mps 752 mmHg 90%
23:00 +19°C° 0 mm 1 mps 752 mmHg 91%

Tomorrow, 8 August, Saturday

Time Temperature Precipitation Wind Pressure Humidity
00:00 +19°C° 0 mm 1 mps 752 mmHg 90%
01:00 +19°C° 0 mm 1 mps 752 mmHg 90%
02:00 +19°C° 0 mm 1 mps 752 mmHg 89%
03:00 +18°C° 0 mm 1 mps 752 mmHg 90%
04:00 +17°C° 0 mm 2 mps 752 mmHg 91%
05:00 +17°C° 0 mm 2 mps 752 mmHg 92%
06:00 +18°C° 0 mm 2 mps 752 mmHg 89%
07:00 +19°C° 0 mm 2 mps 752 mmHg 86%
08:00 +20°C° 0 mm 2 mps 752 mmHg 84%
09:00 +21°C° 0.1 mm 2 mps 752 mmHg 80%
10:00 +23°C° 0.1 mm 2 mps 752 mmHg 77%
11:00 +24°C° 0.1 mm 2 mps 751 mmHg 74%
12:00 +24°C° 0.2 mm 2 mps 751 mmHg 73%
13:00 +24°C° 0.2 mm 2 mps 751 mmHg 73%
14:00 +25°C° 0.2 mm 2 mps 750 mmHg 73%
15:00 +24°C° 0.1 mm 2 mps 750 mmHg 74%
16:00 +24°C° 0.1 mm 2 mps 750 mmHg 76%
17:00 +24°C° 0.1 mm 2 mps 750 mmHg 78%
18:00 +23°C° 0.1 mm 2 mps 749 mmHg 81%
19:00 +21°C° 0.1 mm 2 mps 749 mmHg 84%
20:00 +19°C° 0.1 mm 2 mps 749 mmHg 87%
21:00 +19°C° 0 mm 2 mps 749 mmHg 88%
22:00 +19°C° 0 mm 2 mps 749 mmHg 89%
23:00 +18°C° 0 mm 2 mps 749 mmHg 90%

Day after tomorrow, 9 August, Sunday

Time Temperature Precipitation Wind Pressure Humidity
00:00 +18°C° 0 mm 2 mps 749 mmHg 91%
01:00 +17°C° 0 mm 2 mps 749 mmHg 92%
02:00 +17°C° 0 mm 2 mps 749 mmHg 93%
03:00 +17°C° 0 mm 2 mps 749 mmHg 93%
04:00 +16°C° 0 mm 2 mps 748 mmHg 94%
05:00 +16°C° 0 mm 2 mps 748 mmHg 94%
06:00 +18°C° 0 mm 2 mps 748 mmHg 90%
07:00 +19°C° 0 mm 2 mps 748 mmHg 86%
08:00 +21°C° 0 mm 2 mps 748 mmHg 82%
09:00 +23°C° 0.2 mm 2 mps 748 mmHg 77%
10:00 +24°C° 0.2 mm 3 mps 748 mmHg 73%
11:00 +25°C° 0.2 mm 3 mps 748 mmHg 68%
12:00 +26°C° 0 mm 3 mps 748 mmHg 65%
13:00 +26°C° 0 mm 2 mps 748 mmHg 63%
14:00 +27°C° 0 mm 2 mps 747 mmHg 60%
15:00 +26°C° 0.2 mm 2 mps 747 mmHg 64%
16:00 +26°C° 0.2 mm 2 mps 747 mmHg 68%
17:00 +26°C° 0.2 mm 2 mps 747 mmHg 71%
18:00 +24°C° 0.3 mm 2 mps 747 mmHg 76%
19:00 +21°C° 0.3 mm 2 mps 746 mmHg 80%
20:00 +20°C° 0.3 mm 2 mps 746 mmHg 85%
21:00 +19°C° 0 mm 2 mps 746 mmHg 87%
22:00 +19°C° 0 mm 2 mps 747 mmHg 89%
23:00 +18°C° 0 mm 2 mps 747 mmHg 91%

10 August, Monday

Time Temperature Precipitation Wind Pressure Humidity
00:00 +18°C° 0 mm 2 mps 746 mmHg 91%
01:00 +17°C° 0 mm 2 mps 746 mmHg 91%
02:00 +17°C° 0 mm 2 mps 746 mmHg 91%
03:00 +17°C° 0 mm 2 mps 746 mmHg 91%
04:00 +17°C° 0 mm 2 mps 746 mmHg 91%
05:00 +16°C° 0 mm 1 mps 746 mmHg 91%
06:00 +18°C° 0 mm 2 mps 746 mmHg 88%
07:00 +20°C° 0 mm 2 mps 746 mmHg 85%
08:00 +21°C° 0 mm 2 mps 746 mmHg 82%
09:00 +23°C° 0.7 mm 2 mps 746 mmHg 77%
10:00 +24°C° 0.7 mm 2 mps 746 mmHg 73%
11:00 +26°C° 0.7 mm 2 mps 746 mmHg 68%
12:00 +26°C° 1 mm 2 mps 746 mmHg 66%
13:00 +26°C° 1 mm 2 mps 746 mmHg 65%
14:00 +27°C° 1 mm 2 mps 746 mmHg 63%
15:00 +26°C° 0.7 mm 2 mps 746 mmHg 67%
16:00 +26°C° 0.7 mm 2 mps 745 mmHg 70%
17:00 +26°C° 0.7 mm 2 mps 745 mmHg 74%
18:00 +24°C° 0.1 mm 2 mps 745 mmHg 76%
19:00 +21°C° 0.1 mm 2 mps 745 mmHg 79%
20:00 +21°C° 0.1 mm 1 mps 745 mmHg 82%
21:00 +20°C° 0 mm 1 mps 745 mmHg 83%
22:00 +19°C° 0 mm 2 mps 745 mmHg 84%
23:00 +18°C° 0 mm 2 mps 745 mmHg 85%

11 August, Tuesday

Time Temperature Precipitation Wind Pressure Humidity
00:00 +18°C° 0 mm 2 mps 745 mmHg 86%
01:00 +18°C° 0 mm 2 mps 745 mmHg 87%
02:00 +18°C° 0 mm 1 mps 745 mmHg 89%
03:00 +18°C° 0.1 mm 1 mps 745 mmHg 89%
04:00 +18°C° 0.1 mm 1 mps 745 mmHg 90%
05:00 +18°C° 0.1 mm 1 mps 745 mmHg 91%
06:00 +19°C° 0 mm 1 mps 745 mmHg 87%
07:00 +20°C° 0 mm 2 mps 745 mmHg 84%
08:00 +21°C° 0 mm 2 mps 745 mmHg 81%
09:00 +23°C° 0.8 mm 2 mps 745 mmHg 78%
10:00 +24°C° 0.8 mm 3 mps 745 mmHg 75%
11:00 +25°C° 0.8 mm 3 mps 745 mmHg 72%
12:00 +25°C° 0.8 mm 3 mps 744 mmHg 72%
13:00 +25°C° 0.8 mm 3 mps 744 mmHg 72%
14:00 +25°C° 0.8 mm 4 mps 744 mmHg 72%
15:00 +23°C° 0.2 mm 4 mps 744 mmHg 73%
16:00 +23°C° 0.2 mm 4 mps 744 mmHg 74%
17:00 +22°C° 0.2 mm 4 mps 744 mmHg 75%
18:00 +20°C° 0 mm 4 mps 744 mmHg 79%
19:00 +18°C° 0 mm 4 mps 744 mmHg 82%
20:00 +16°C° 0 mm 3 mps 744 mmHg 85%
21:00 +14°C° 0 mm 3 mps 744 mmHg 85%
22:00 +14°C° 0 mm 3 mps 744 mmHg 86%
23:00 +13°C° 0 mm 3 mps 744 mmHg 87%

12 August, Wednesday

Time Temperature Precipitation Wind Pressure Humidity
00:00 +12°C° 0 mm 3 mps 744 mmHg 89%
01:00 +12°C° 0 mm 3 mps 744 mmHg 90%
02:00 +11°C° 0 mm 3 mps 744 mmHg 92%
03:00 +11°C° 0 mm 3 mps 744 mmHg 94%
04:00 +11°C° 0 mm 3 mps 745 mmHg 96%
05:00 +11°C° 0 mm 3 mps 745 mmHg 97%
06:00 +12°C° 0 mm 3 mps 745 mmHg 94%
07:00 +13°C° 0 mm 3 mps 745 mmHg 90%
08:00 +14°C° 0 mm 4 mps 745 mmHg 87%
09:00 +15°C° 0.1 mm 4 mps 745 mmHg 85%
10:00 +15°C° 0.1 mm 4 mps 745 mmHg 83%
11:00 +17°C° 0.1 mm 4 mps 745 mmHg 81%
12:00 +18°C° 0.2 mm 4 mps 745 mmHg 79%
13:00 +18°C° 0.2 mm 4 mps 745 mmHg 77%
14:00 +18°C° 0.2 mm 4 mps 745 mmHg 76%
15:00 +18°C° 0.1 mm 4 mps 745 mmHg 76%
16:00 +18°C° 0.1 mm 4 mps 745 mmHg 75%
17:00 +18°C° 0.1 mm 4 mps 745 mmHg 75%
18:00 +17°C° 0.1 mm 3 mps 745 mmHg 80%
19:00 +16°C° 0.1 mm 3 mps 745 mmHg 86%
20:00 +14°C° 0.1 mm 2 mps 745 mmHg 91%
21:00 +14°C° 0 mm 2 mps 745 mmHg 91%
22:00 +13°C° 0 mm 2 mps 745 mmHg 92%
23:00 +13°C° 0 mm 2 mps 745 mmHg 92%
Show more